Location: *
(50.0228°S, 177.2688°W)
Time: 12:01:26
(UTC+00:00)

STARLINK-1055 - Pass Details

Date: 07 April 2020
Orbit: 548 x 551 km, 53.0° (Epoch: 26 May)

Event Time Altitude Azimuth Distance (km) Brightness Sun altitude
Rises 05:40:44 0° 283° (WNW) 2,743 9.9 -3.7°
Reaches altitude 10° 05:42:59 10° 280° (W) 1,850 8.3 -4.1°
Maximum altitude 05:47:11 71° 196° (SSW) 597 3.9 -4.7°
Drops below altitude 10° 05:51:24 10° 110° (ESE) 1,854 5.7 -5.4°
Enters shadow 05:52:13 - 109° (ESE) 2,175 6.0 -5.5°
